Regional Weather Roundup
Issued by NWS

Home | Current Version | Previous Version | Graphics & Text | Print | Product List | Glossary On
Versions: 1 2 3 4 5 6 7 8 9 10 11 12 13 14 15 16 17 18 19 20 21 22 23 24 25 26 27 28 29 30 31 32 33 34 35 36 37 38 39 40 41 42 43 44 45 46 47 48 49 50
000
ASUS43 KIND 181209
RWRIN

WEATHER ROUNDUP FOR INDIANA
NATIONAL WEATHER SERVICE INDIANAPOLIS IN
800 AM EDT WED OCT 18 2017

NOTE: "FAIR" INDICATES FEW OR NO CLOUDS BELOW 12,000 FEET WITH NO
SIGNIFICANT WEATHER AND/OR OBSTRUCTIONS TO VISIBILITY.

* - STATION DOES NOT REPORT WEATHER SUCH AS PRECIPITATION OR FOG.

+ - STATION NOT QUALITY CONTROLLED BY THE NATIONAL WEATHER SERVICE.
    USE DATA WITH CAUTION...ESPECIALLY DEWPOINT AND RELATIVE
    HUMIDITY OBSERVATIONS.

INZ001>003-010>013-019-020-181300-
NORTHWEST INDIANA

CITY           SKY/WX    TMP DP  RH WIND       PRES   REMARKS
GARY /AIRPORT/ CLEAR     52  39  62 S7        30.19F
KNOX *+        CLEAR     43  39  87 S7        30.22F
LA PORTE +     CLEAR     43  39  86 CALM      30.21F
6HR MIN TEMP:  39; 6HR MAX TEMP:  49;

MICHIGAN CITY+ CLEAR     48  39  71 S8        30.21S
MONTICELLO +   CLEAR     47  41  78 S5        30.23F
6HR MIN TEMP:  47; 6HR MAX TEMP:  50;

RENSSELAER +   CLEAR     43  36  75 S3        30.22F
VALPARAISO     CLEAR     45  40  82 S5        30.21F
6HR MIN TEMP:  43; 6HR MAX TEMP:  51;


$$

LMZ046-743>745-181300-
SOUTHERN LAKE MICHIGAN

STATION/POSITION TIME  TEMP    WIND        PRES    WAVE
                       AIR SEA DIR/SP/G            HT
                 (UTC) (F)     (DEG/KT/KT) (MB)    (FT)
BURNS HARBOR     1140   50     180/ 13/ 15 1022.7F
MICHIGAN CITY    1140   51     170/ 15/ 17   N/A
5NW MICH CITY    1200   51 57  190/ 14/ 17   N/A     2

$$

INZ004-005-014>016-021>024-181300-
NORTH CENTRAL INDIANA

CITY           SKY/WX    TMP DP  RH WIND       PRES   REMARKS
ELKHART        CLEAR     46  39  76 S5        30.22F
GOSHEN         CLEAR     47  38  71 S10       30.23S
6HR MIN TEMP:  46; 6HR MAX TEMP:  50;

LOGANSPORT +   CLEAR     39  36  87 SE6       30.26S
PERU/GRISSOM   CLEAR     42  39  91 S6        30.25R
6HR MIN TEMP:  41; 6HR MAX TEMP:  47;

SOUTH BEND     CLEAR     45  41  86 S8        30.21F
6HR MIN TEMP:  44; 6HR MAX TEMP:  50;

WARSAW +       CLEAR     45  39  81 CALM      30.24F

$$

INZ006>009-017-018-025>027-181300-
NORTHEAST INDIANA

CITY           SKY/WX    TMP DP  RH WIND       PRES   REMARKS
AUBURN +       CLEAR     43  37  81 CALM      30.26S
FORT WAYNE     CLEAR     41  36  82 CALM      30.27S
6HR MIN TEMP:  39; 6HR MAX TEMP:  46;

HUNTINGTON +   CLEAR     43  40  88 CALM      30.26S
6HR MIN TEMP:  42; 6HR MAX TEMP:  48;

KENDALLVILLE + CLEAR     46  40  79 S8        30.25S

$$

INZ028-029-035-036-043>045-051>053-181300-
WEST CENTRAL INDIANA

CITY           SKY/WX    TMP DP  RH WIND       PRES   REMARKS
CRAWFORDSVL +  CLEAR     37  37 100 CALM      30.26R
GREENCASTLE +  CLEAR     41  37  87 CALM      30.26S
LAFAYETTE      CLEAR     41  40  96 CALM      30.25S
6HR MIN TEMP:  40; 6HR MAX TEMP:  49;

TERRE HAUTE    CLEAR     40  37  89 CALM      30.26R
6HR MIN TEMP:  37; 6HR MAX TEMP:  44;


$$

INZ030>032-037>040-046>048-054>057-064-065-181300-
CENTRAL INDIANA

CITY           SKY/WX    TMP DP  RH WIND       PRES   REMARKS
ANDERSON       CLEAR     43  39  87 CALM      30.28
CP ATTERBURY + PTCLDY    34  34 100 CALM      30.29S
COLUMBUS       CLEAR     39  37  93 CALM      30.29R
FISHERS *+     CLEAR     41  41 100 SE3       30.28R
FRANKFORT +    CLOUDY    42  40  92 S3        30.27S
6HR MIN TEMP:  42; 6HR MAX TEMP:  48;

GREENWOOD *+   CLEAR     46  43  87 CALM      30.28R
6HR MIN TEMP:  45; 6HR MAX TEMP:  52;

INDIANAPOLIS   CLEAR     44  40  85 E5        30.27S
6HR MIN TEMP:  43; 6HR MAX TEMP:  49;

-EAGLE CREEK   FOG       41  39  93 CALM      30.26S VSB 1/2
6HR MIN TEMP:  41; 6HR MAX TEMP:  46;

KOKOMO +       CLEAR     41  39  93 S3        30.27R
6HR MIN TEMP:  41; 6HR MAX TEMP:  45;

MARION +       CLEAR     41  37  87 CALM      30.28S
MT COMFORT *+  CLEAR     41  41 100 SE5       30.28S
SHELBYVILLE    CLEAR     39  36  89 SE5       30.27S
6HR MIN TEMP:  39; 6HR MAX TEMP:  49;

ZIONSVILLE +   CLEAR     38  38  99 CALM      30.27S
6HR MIN TEMP:  37; 6HR MAX TEMP:  46;


$$

INZ033-034-041-042-049-050-058-059-181300-
EAST CENTRAL INDIANA

CITY           SKY/WX    TMP DP  RH WIND       PRES   REMARKS
MUNCIE         CLEAR     44  38  79 S3        30.28R
6HR MIN TEMP:  40; 6HR MAX TEMP:  47;

RICHMOND +     CLEAR     37  37 100 SE3       30.30S

$$

INZ060-061-067>069-081>083-085>088-181300-
SOUTHWEST INDIANA

CITY           SKY/WX    TMP DP  RH WIND       PRES   REMARKS
EVANSVILLE     CLEAR     41  39  93 CALM      30.28R
6HR MIN TEMP:  40; 6HR MAX TEMP:  45;

HUNTINGBURG +  CLEAR     42  40  92 SE5       30.28R
6HR MIN TEMP:  41; 6HR MAX TEMP:  45;

WASHINGTON +   CLEAR     41  39  93 CALM      30.27R
6HR MIN TEMP:  37; 6HR MAX TEMP:  43;


$$

INZ062-063-066-070>080-084-089>092-181300-
SOUTH CENTRAL AND SOUTHEAST INDIANA

CITY           SKY/WX    TMP DP  RH WIND       PRES   REMARKS
BEDFORD +      CLEAR     39  37  93 CALM      30.28R
BLOOMINGTON    CLEAR     39  35  86 CALM      30.27R
6HR MIN TEMP:  39; 6HR MAX TEMP:  42;

MADISON *+     CLEAR     41  39  93 CALM      30.31S
NORTH VERNON + CLEAR     36  36 100 CALM      30.30R
SEYMOUR +      FOG       37  36  93 CALM      30.29R VSB 1

$$





USA.gov is the U.S. government's official web portal to all federal, state and local government web resources and services.